Weather History for Biloxi, MS

Change the Weather History Date:

Wednesday, February 13, 2013

  Actual Average Record
Temperature  
Mean Temperature 56 °F -  
Max Temperature 66 °F 63 °F 75 °F (1949)
Min Temperature 44 °F 44 °F 19 °F (1958)
Degree Days  
Heating Degree Days 8    
Growing Degree Days 6 (Base 50)    
Moisture  
Dew Point 50 °F    
Average Humidity 88    
Maximum Humidity 100    
Minimum Humidity 76    
Precipitation  
Precipitation 0.22 in - - ()
Sea Level Pressure  
Sea Level Pressure 29.96 in    
Wind  
Wind Speed 7 mph (NNW)    
Max Wind Speed 16 mph    
Max Gust Speed 25 mph    
Visibility 9 miles    
Events Rain    
Averages and records for this station are not official NWS values.
T = Trace of Precipitation, MM = Missing Value Source: NWS Daily Summary

Daily Weather History Graph

Daily Weather History Graph

Search for Another Location

Airport:

Trip Planner

Search our weather history database for the weather conditions in past years. The results will help you decide how hot, cold, wet, or windy it might be!

Date:

Astronomy

Feb. 13, 2013 Rise Set
Actual Time 6:37 AM CST 5:42 PM CST
Civil Twilight 6:12 AM CST 6:07 PM CST
Nautical Twilight 5:44 AM CST 6:35 PM CST
Astronomical Twilight 5:16 AM CST 7:03 PM CST
Moon 8:26 AM CST (2/13) 9:23 PM CST (2/13)
Length of Visible Light 11h 54m
Length of Day
11h 05m
Waxing Crescent, 14% of the Moon is Illuminated
Feb 13
Waxing Crescent
Feb 17
First Quarter
Feb 25
Full
Mar 4
Last Quarter
Mar 11
New

Hourly Weather History & Observations

Time (CST) Temp. Windchill Dew Point Humidity Pressure Visibility Wind Dir Wind Speed Gust Speed Precip Events Conditions
12:18 AM 64.4 °F - 64.4 °F 100% 29.80 in 5.0 mi West 3.5 mph - N/A   Mostly Cloudy
12:28 AM 64.4 °F - 64.4 °F 100% 29.81 in 7.0 mi West 3.5 mph - N/A   Scattered Clouds
12:38 AM 66.2 °F - 64.4 °F 94% 29.80 in 10.0 mi West 5.8 mph - N/A   Partly Cloudy
12:58 AM 65.3 °F - 64.0 °F 96% 29.82 in 10.0 mi Variable 3.5 mph - N/A   Mostly Cloudy
1:58 AM 63.9 °F - 61.7 °F 93% 29.83 in 10.0 mi NW 8.1 mph - N/A   Scattered Clouds
2:58 AM 61.5 °F - 58.1 °F 89% 29.86 in 10.0 mi Variable 4.6 mph - N/A   Clear
3:58 AM 58.8 °F - 54.1 °F 84% 29.87 in 10.0 mi Variable 3.5 mph - N/A   Clear
4:58 AM 56.3 °F - 52.5 °F 87% 29.90 in 10.0 mi Variable 3.5 mph - N/A   Clear
5:58 AM 55.2 °F - 51.6 °F 88% 29.91 in 10.0 mi Calm Calm - N/A   Overcast
6:58 AM 53.6 °F - 48.9 °F 84% 29.94 in 10.0 mi Variable 2.3 mph - N/A   Clear
7:58 AM 53.6 °F - 48.2 °F 82% 29.96 in 10.0 mi NW 10.4 mph - N/A   Scattered Clouds
8:58 AM 54.0 °F - 48.2 °F 81% 29.96 in 10.0 mi NNW 16.1 mph 25.3 mph N/A   Scattered Clouds
9:58 AM 54.3 °F - 46.8 °F 76% 29.97 in 10.0 mi NNW 12.7 mph - N/A   Scattered Clouds
10:24 AM 53.6 °F - 48.2 °F 82% 29.97 in 10.0 mi NNW 12.7 mph - N/A Rain Light Rain
10:36 AM 53.6 °F - 48.2 °F 82% 29.96 in 10.0 mi NNW 11.5 mph - N/A   Partly Cloudy
10:58 AM 53.8 °F - 47.7 °F 80% 29.97 in 10.0 mi NNW 8.1 mph - 0.00 in   Mostly Cloudy
11:21 AM 53.6 °F - 48.2 °F 82% 29.98 in 10.0 mi NW 8.1 mph - N/A Rain Light Rain
11:31 AM 53.6 °F - 48.2 °F 82% 29.99 in 10.0 mi NNW 5.8 mph - N/A   Light Drizzle
11:58 AM 52.7 °F - 48.6 °F 86% 29.99 in 10.0 mi NW 4.6 mph - 0.01 in Rain Light Rain
12:23 PM 51.8 °F - 48.2 °F 88% 30.00 in 5.0 mi NW 5.8 mph - N/A Rain Rain
12:28 PM 51.8 °F - 48.2 °F 88% 30.00 in 4.0 mi NNW 9.2 mph - N/A Rain Rain
12:33 PM 51.8 °F - 48.2 °F 88% 29.98 in 6.0 mi NNW 13.8 mph - N/A Rain Light Rain
12:38 PM 50.0 °F - 48.2 °F 94% 29.97 in 9.0 mi NNW 15.0 mph - N/A Rain Light Rain
12:58 PM 50.0 °F - 46.4 °F 87% 30.01 in 10.0 mi NNW 10.4 mph - 0.06 in Rain Light Rain
1:03 PM 50.0 °F - 46.4 °F 87% 29.99 in 10.0 mi NNW 11.5 mph - N/A Rain Light Rain
1:23 PM 48.2 °F - 46.4 °F 93% 29.97 in 4.0 mi North 11.5 mph - N/A Rain Light Rain
1:28 PM 48.2 °F - 46.4 °F 93% 29.97 in 9.0 mi North 10.4 mph - N/A Rain Light Rain
1:58 PM 48.0 °F - 45.7 °F 92% 30.01 in 10.0 mi NNW 11.5 mph - 0.12 in Rain Light Rain
2:55 PM 48.2 °F - 46.4 °F 93% 29.97 in 10.0 mi NNW 9.2 mph - N/A   Partly Cloudy
2:58 PM 48.2 °F - 46.4 °F 93% 29.98 in 10.0 mi North 9.2 mph - 0.03 in   Partly Cloudy
3:58 PM 49.1 °F - 46.2 °F 90% 29.99 in 10.0 mi NNW 4.6 mph - N/A   Partly Cloudy
4:23 PM 50.0 °F - 46.4 °F 87% 29.98 in 10.0 mi NW 4.6 mph - N/A   Mostly Cloudy
4:29 PM 50.0 °F - 46.4 °F 87% 29.99 in 10.0 mi NNW 5.8 mph - N/A   Mostly Cloudy
4:55 PM 50.0 °F - 46.4 °F 87% 30.00 in 10.0 mi NW 5.8 mph - N/A   Mostly Cloudy
5:58 PM 49.5 °F - 46.0 °F 88% 30.01 in 10.0 mi NNW 6.9 mph - N/A   Scattered Clouds
6:58 PM 49.3 °F - 45.0 °F 85% 30.02 in 10.0 mi NNW 4.6 mph - N/A   Scattered Clouds
7:58 PM 49.3 °F - 45.0 °F 85% 30.04 in 10.0 mi NNW 6.9 mph - N/A   Mostly Cloudy
8:58 PM 48.9 °F - 44.2 °F 84% 30.06 in 10.0 mi North 6.9 mph - N/A   Overcast
9:58 PM 47.3 °F - 42.8 °F 84% 30.08 in 10.0 mi North 9.2 mph - N/A   Scattered Clouds
11:58 PM 44.2 °F 41.0 °F 40.6 °F 87% 30.08 in 10.0 mi NNE 5.8 mph - N/A   Clear